Hourly Data Report for December 07, 2003

SHERBROOKE A
QUEBEC

45°26'00.000" N
71°41'00.000" W
241.40 m
7028124
71610
YSC

Download Data

Hourly Data (December 2003)
Hourly Data Report for December 7, 2003
TIME
LST
Temp Definition
°C
Dew Point Definition
°C
Rel Hum Definition
%
Precip. Amount Definition
mm

Wind Dir Definition
10's deg

Wind Spd Definition
km/h
Visibility Definition
km
Stn Press Definition
kPa
Hmdx Definition


Wind Chill Definition


Weather Definition


00:00 -9.2 -11.7 82   3 17 1.6 98.81   -16 Snow
01:00 -9.0 -11.3 83   3 15 1.0 98.75   -16 Snow
02:00 -8.5 -11.0 82   4 15 1.3 98.69   -15 Snow
03:00 -8.5 -10.9 83   2 15 1.3 98.59   -15 Snow
04:00 -8.5 -10.6 85   3 20 1.0 98.56   -16 Snow
05:00 -8.3 -10.6 83   3 20 0.6 98.49   -16 Snow
06:00 -8.1 -10.3 84   3 19 0.6 98.45   -15 Snow
07:00 -8.4 -10.6 84   2 19 0.5 98.43   -16 Snow
08:00 -8.2 -10.6 83   1 17 0.4 98.42   -15 Heavy Snow
09:00 -7.7 -10.1 83   1 15 0.8 98.40   -14 Moderate Snow
10:00 -7.3 -10.3 79   2 19 0.8 98.38   -14 Moderate Snow
11:00 -7.0 -10.0 79   2 22 1.2 98.30   -14 Snow
12:00 -5.8 -9.6 74   2 17 3.2 98.23   -12 Snow
13:00 -5.3 -8.9 76   3 20 1.2 98.19   -12 Snow
14:00 -5.2 -8.1 80   2 20 1.2 98.17   -12 Snow
15:00 -5.2 -8.1 80   2 17 0.8 98.19   -11 Moderate Snow
16:00 -4.9 -9.1 72   1 17 9.7 98.24   -11 Snow
17:00 -5.0 -9.2 72   2 13 12.9 98.29   -10 Snow
18:00 -4.7 -9.1 71   1 13 15.0 98.32   -10 Snow
19:00 -5.0 -8.2 78   36 9 3.7 98.34   -9 Snow
20:00 -5.1 -8.6 76   32 6 15.0 98.37   -8  
21:00 -5.2 -8.5 78   34 9 9.7 98.38   -9 Snow
22:00 -4.7 -8.2 76   32 6 15.0 98.41   -7  
23:00 -5.8 -8.7 80   29 11 15.0 98.44   -11  

Notes on Data Quality.

Legend

  • E = Estimated
  • M = Missing
  • NA = Not Available*
  • [empty] = Indicates an unobserved value
Date modified: